TimeMST,TemperatureF,Dew PointF,Humidity,Sea Level PressureIn,VisibilityMPH,Wind Direction,Wind SpeedMPH,Gust SpeedMPH,PrecipitationIn,Events,Conditions,WindDirDegrees,DateUTC
12:51 AM,28.0,24.1,85,30.06,10.0,WNW,6.9,-,N/A,,Overcast,300,2012-11-25 07:51:00
2:51 AM,26.1,23.0,88,30.05,10.0,WNW,4.6,-,N/A,,Mostly Cloudy,290,2012-11-25 09:51:00
3:02 AM,26.6,21.2,80,29.98,10.0,WNW,4.6,-,N/A,,Scattered Clouds,290,2012-11-25 10:02:00
3:51 AM,25.0,21.9,88,30.05,10.0,Calm,Calm,-,N/A,,Clear,0,2012-11-25 10:51:00
5:51 AM,21.9,18.0,85,30.07,10.0,NW,4.6,-,N/A,,Clear,320,2012-11-25 12:51:00
6:51 AM,21.0,18.0,88,30.08,10.0,Calm,Calm,-,N/A,,Partly Cloudy,0,2012-11-25 13:51:00
7:31 AM,19.4,15.8,86,29.99,10.0,Calm,Calm,-,N/A,,Mostly Cloudy,0,2012-11-25 14:31:00
7:40 AM,21.2,17.6,86,30.00,4.0,Calm,Calm,-,N/A,,Overcast,0,2012-11-25 14:40:00
7:51 AM,19.9,16.0,85,30.10,10.0,WNW,3.5,-,N/A,,Overcast,300,2012-11-25 14:51:00
8:18 AM,21.2,17.6,86,30.00,1.5,Calm,Calm,-,N/A,,Overcast,0,2012-11-25 15:18:00
8:25 AM,21.2,17.6,86,30.00,0.5,Calm,Calm,-,N/A,Fog,Light Freezing Fog,0,2012-11-25 15:25:00
8:51 AM,23.0,19.9,88,30.10,0.2,Calm,Calm,-,N/A,Fog,Light Freezing Fog,0,2012-11-25 15:51:00
9:51 AM,27.0,23.0,85,30.11,1.8,West,6.9,-,N/A,,Overcast,270,2012-11-25 16:51:00
9:55 AM,26.6,24.8,93,30.02,3.0,West,8.1,-,N/A,,Overcast,270,2012-11-25 16:55:00
10:21 AM,28.4,26.6,93,30.02,10.0,Variable,4.6,-,N/A,,Mostly Cloudy,0,2012-11-25 17:21:00
10:30 AM,28.4,24.8,86,30.01,10.0,WNW,4.6,-,N/A,,Scattered Clouds,290,2012-11-25 17:30:00
10:51 AM,28.9,25.0,85,30.10,10.0,NW,4.6,-,N/A,,Clear,310,2012-11-25 17:51:00
11:51 AM,32.0,25.0,75,30.08,10.0,NNW,6.9,-,N/A,,Scattered Clouds,330,2012-11-25 18:51:00
12:51 PM,30.9,24.1,76,30.09,10.0,NW,10.4,-,N/A,,Partly Cloudy,320,2012-11-25 19:51:00
1:31 PM,30.2,23.0,75,30.01,10.0,North,11.5,-,N/A,,Mostly Cloudy,360,2012-11-25 20:31:00
1:51 PM,28.0,21.9,78,30.12,10.0,North,11.5,23.0,N/A,,Overcast,350,2012-11-25 20:51:00
1:56 PM,28.4,21.2,74,30.02,10.0,North,15.0,21.9,N/A,,Overcast,350,2012-11-25 20:56:00
2:38 PM,26.6,19.4,74,30.04,10.0,North,16.1,23.0,N/A,,Overcast,350,2012-11-25 21:38:00
2:51 PM,26.1,19.9,78,30.15,10.0,North,9.2,21.9,N/A,,Overcast,350,2012-11-25 21:51:00
3:04 PM,24.8,19.4,80,30.06,10.0,NNW,9.2,-,N/A,,Overcast,340,2012-11-25 22:04:00
3:51 PM,25.0,18.0,75,30.17,10.0,NNW,9.2,-,N/A,,Overcast,340,2012-11-25 22:51:00
4:51 PM,23.0,17.1,78,30.21,10.0,NNW,9.2,-,N/A,,Overcast,330,2012-11-25 23:51:00
4:56 PM,23.0,17.6,80,30.10,10.0,North,10.4,-,N/A,,Overcast,350,2012-11-25 23:56:00
5:51 PM,19.9,15.1,81,30.25,10.0,NNE,9.2,-,N/A,,Overcast,20,2012-11-26 00:51:00
7:51 PM,18.0,12.0,78,30.31,10.0,NNE,5.8,-,N/A,,Overcast,30,2012-11-26 02:51:00
8:51 PM,17.1,12.0,81,30.32,10.0,North,4.6,-,N/A,,Overcast,10,2012-11-26 03:51:00
9:51 PM,16.0,10.9,81,30.34,10.0,NNE,4.6,-,N/A,,Overcast,20,2012-11-26 04:51:00
10:51 PM,15.1,10.9,84,30.35,10.0,WNW,4.6,-,N/A,,Overcast,290,2012-11-26 05:51:00
11:51 PM,15.1,10.9,84,30.35,10.0,West,6.9,-,N/A,,Overcast,280,2012-11-26 06:51:00